McCook, NE

1:50 AM CST on February 25, 2017 (GMT -0600)
McCook Municipal

Weather History for KMCK - October, 2011

Change the Weather History Date:

Sunday, October 2, 2011

  Actual Average Record
Temperature  
Mean Temperature 63 °F 57 °F  
Max Temperature 83 °F 72 °F 97 °F (1997)
Min Temperature 42 °F 42 °F 28 °F (1975)
Degree Days  
Heating Degree Days 3    
Growing Degree Days 12 (Base 50)    
Moisture  
Dew Point 37 °F    
Average Humidity 41    
Maximum Humidity 76    
Minimum Humidity 19    
Precipitation  
Precipitation 0.00 in 0.06 in 0.70 in (1950)
Month to date precipitation 0.00 0.12  
Year to date precipitation 17.55 19.27  
Sea Level Pressure  
Sea Level Pressure 30.08 in    
Wind  
Wind Speed 9 mph (SE)    
Max Wind Speed 18 mph    
Max Gust Speed 23 mph    
Visibility 10 miles    
Events      
T = Trace of Precipitation, MM = Missing Value Source: NWS Daily Summary

Daily Weather History Graph

Daily Weather History Graph

Search for Another Location

Airport or City:

Trip Planner

Search our weather history database for the weather conditions in past years. The results will help you decide how hot, cold, wet, or windy it might be!

Date:

Astronomy

Oct. 02, 2011 Rise Set
Actual Time 7:39 AM CDT 7:23 PM CDT
Civil Twilight 7:12 AM CDT 7:50 PM CDT
Nautical Twilight 6:40 AM CDT 8:21 PM CDT
Astronomical Twilight 6:09 AM CDT 8:53 PM CDT
Moon 1:48 PM CDT (10/2) 11:23 PM CDT (10/2)
Length of Visible Light 12h 38m
Length of Day
11h 43m
Waxing Crescent, 35% of the Moon is Illuminated
Oct 2
Waxing Crescent
Oct 3
First Quarter
Oct 11
Full
Oct 19
Last Quarter
Oct 26
New

Hourly Weather History & Observations

Time (CDT) Temp. Windchill Dew Point Humidity Pressure Visibility Wind Dir Wind Speed Gust Speed Precip Events Conditions
12:53 AM 57.0 °F - 36.0 °F 45% 30.10 in 10.0 mi SSW 8.1 mph - N/A   Clear
1:53 AM 59.0 °F - 36.0 °F 42% 30.08 in 10.0 mi SSW 12.7 mph - N/A   Clear
2:53 AM 55.0 °F - 36.0 °F 49% 30.09 in 10.0 mi SSW 10.4 mph - N/A   Clear
3:53 AM 53.1 °F - 35.1 °F 50% 30.10 in 10.0 mi Calm Calm - N/A   Clear
4:53 AM 46.4 °F 45.2 °F 35.6 °F 66% 30.16 in 10.0 mi ENE 3.5 mph - N/A   Clear
5:53 AM 46.0 °F 43.9 °F 36.0 °F 68% 30.12 in 10.0 mi East 4.6 mph - N/A   Clear
6:53 AM 44.1 °F 41.5 °F 35.1 °F 71% 30.13 in 10.0 mi East 4.6 mph - N/A   Clear
7:53 AM 42.1 °F 38.4 °F 35.1 °F 76% 30.16 in 10.0 mi East 5.8 mph - N/A   Clear
8:53 AM 46.9 °F - 37.0 °F 68% 30.16 in 10.0 mi East 4.6 mph - N/A   Clear
9:53 AM 54.0 °F - 37.9 °F 55% 30.14 in 10.0 mi ESE 4.6 mph - N/A   Clear
10:53 AM 64.9 °F - 37.0 °F 36% 30.12 in 10.0 mi SSE 9.2 mph - N/A   Clear
11:53 AM 69.1 °F - 37.0 °F 31% 30.11 in 10.0 mi SSE 10.4 mph - N/A   Clear
12:53 PM 75.2 °F - 37.4 °F 25% 30.12 in 10.0 mi SSE 12.7 mph 21.9 mph N/A   Clear
1:53 PM 80.1 °F - 37.0 °F 21% 30.04 in 10.0 mi SE 15.0 mph 23.0 mph N/A   Clear
2:53 PM 82.0 °F - 37.0 °F 20% 30.02 in 10.0 mi SE 18.4 mph 23.0 mph N/A   Clear
3:53 PM 82.9 °F - 37.0 °F 19% 30.01 in 10.0 mi SSE 13.8 mph 21.9 mph N/A   Clear
4:53 PM 82.4 °F - 37.4 °F 20% 30.04 in 10.0 mi SSE 16.1 mph 23.0 mph N/A   Clear
5:53 PM 82.0 °F - 37.0 °F 20% 30.01 in 10.0 mi SE 15.0 mph - N/A   Clear
6:53 PM 78.1 °F - 37.0 °F 23% 30.02 in 10.0 mi SE 11.5 mph - N/A   Clear
7:53 PM 68.0 °F - 37.4 °F 33% 30.06 in 10.0 mi East 8.1 mph - N/A   Clear
8:53 PM 66.0 °F - 37.9 °F 36% 30.05 in 10.0 mi East 8.1 mph - N/A   Clear
9:53 PM 63.0 °F - 39.0 °F 41% 30.05 in 10.0 mi East 6.9 mph - N/A   Clear
10:53 PM 64.0 °F - 37.9 °F 38% 30.03 in 10.0 mi East 8.1 mph - N/A   Clear
11:53 PM 64.4 °F - 37.4 °F 37% 30.06 in 10.0 mi ESE 11.5 mph - N/A   Clear